Year,Month,Day,Hour,Minute,Value (Times are PST for temperature in C)
2016,08,25,00,00,23.30
2016,08,25,00,01,23.30
2016,08,25,00,02,23.30
2016,08,25,00,03,23.30
2016,08,25,00,04,23.30
2016,08,25,00,05,23.30
2016,08,25,00,06,23.30
2016,08,25,00,07,23.30
2016,08,25,00,08,23.30
2016,08,25,00,09,23.30
2016,08,25,00,10,23.30
2016,08,25,00,11,23.30
2016,08,25,00,12,23.30
2016,08,25,00,13,23.30
2016,08,25,00,14,23.30
2016,08,25,00,15,23.30
2016,08,25,00,16,23.30
2016,08,25,00,17,23.30
2016,08,25,00,18,23.30
2016,08,25,00,19,23.30
2016,08,25,00,20,23.30
2016,08,25,00,21,23.30
2016,08,25,00,22,23.20
2016,08,25,00,23,23.20
2016,08,25,00,24,23.20
2016,08,25,00,25,23.10
2016,08,25,00,26,23.10
2016,08,25,00,27,23.10
2016,08,25,00,28,22.90
2016,08,25,00,29,22.90
2016,08,25,00,30,22.90
2016,08,25,00,31,22.90
2016,08,25,00,32,22.90
2016,08,25,00,33,22.90
2016,08,25,00,34,22.80
2016,08,25,00,35,22.80
2016,08,25,00,36,22.80
2016,08,25,00,37,22.70
2016,08,25,00,38,22.70
2016,08,25,00,39,22.60
2016,08,25,00,40,22.60
2016,08,25,00,41,22.60
2016,08,25,00,42,22.60
2016,08,25,00,43,22.60
2016,08,25,00,44,22.60
2016,08,25,00,45,22.60
2016,08,25,00,46,22.50
2016,08,25,00,47,22.50
2016,08,25,00,48,22.50
2016,08,25,00,49,22.50
2016,08,25,00,50,22.50
2016,08,25,00,51,22.50
2016,08,25,00,52,22.50
2016,08,25,00,53,22.50
2016,08,25,00,54,22.50
2016,08,25,00,55,22.40
2016,08,25,00,56,22.40
2016,08,25,00,57,22.40
2016,08,25,00,58,22.30
2016,08,25,00,59,22.20
2016,08,25,01,00,22.20
2016,08,25,01,01,22.10
2016,08,25,01,02,22.10
2016,08,25,01,03,22.00
2016,08,25,01,04,22.00
2016,08,25,01,05,22.00
2016,08,25,01,06,22.00
2016,08,25,01,07,22.00
2016,08,25,01,08,22.00
2016,08,25,01,09,22.00
2016,08,25,01,10,22.00
2016,08,25,01,11,22.00
2016,08,25,01,12,21.90
2016,08,25,01,13,21.90
2016,08,25,01,14,21.90
2016,08,25,01,15,21.80
2016,08,25,01,16,21.80
2016,08,25,01,17,21.80
2016,08,25,01,18,21.70
2016,08,25,01,19,21.70
2016,08,25,01,20,21.70
2016,08,25,01,21,21.60
2016,08,25,01,22,21.60
2016,08,25,01,23,21.60
2016,08,25,01,24,21.60
2016,08,25,01,25,21.60
2016,08,25,01,26,21.60
2016,08,25,01,27,21.70
2016,08,25,01,28,21.70
2016,08,25,01,29,21.70
2016,08,25,01,30,21.80
2016,08,25,01,31,21.80
2016,08,25,01,32,21.80
2016,08,25,01,33,21.80
2016,08,25,01,34,21.80
2016,08,25,01,35,21.90
2016,08,25,01,36,21.90
2016,08,25,01,37,21.90
2016,08,25,01,38,21.90
2016,08,25,01,39,21.80
2016,08,25,01,40,21.80
2016,08,25,01,41,21.80
2016,08,25,01,42,21.70
2016,08,25,01,43,21.60
2016,08,25,01,44,21.60
2016,08,25,01,45,21.60
2016,08,25,01,46,21.60
2016,08,25,01,47,21.60
2016,08,25,01,48,21.50
2016,08,25,01,49,21.40
2016,08,25,01,50,21.40
2016,08,25,01,51,21.30
2016,08,25,01,52,21.30
2016,08,25,01,53,21.30
2016,08,25,01,54,21.30
2016,08,25,01,55,21.30
2016,08,25,01,56,21.30
2016,08,25,01,57,21.30
2016,08,25,01,58,21.30
2016,08,25,01,59,21.30
2016,08,25,02,00,21.20
2016,08,25,02,01,21.20
2016,08,25,02,02,21.20
2016,08,25,02,03,21.10
2016,08,25,02,04,21.10
2016,08,25,02,05,21.10
2016,08,25,02,06,21.10
2016,08,25,02,07,21.00
2016,08,25,02,08,21.00
2016,08,25,02,09,21.00
2016,08,25,02,10,21.00
2016,08,25,02,11,21.00
2016,08,25,02,12,21.00
2016,08,25,02,13,20.90
2016,08,25,02,14,20.90
2016,08,25,02,15,20.90
2016,08,25,02,16,20.90
2016,08,25,02,17,20.90
2016,08,25,02,18,20.90
2016,08,25,02,19,20.90
2016,08,25,02,20,20.90
2016,08,25,02,21,21.00
2016,08,25,02,22,21.00
2016,08,25,02,23,21.00
2016,08,25,02,24,21.00
2016,08,25,02,25,21.10
2016,08,25,02,26,21.10
2016,08,25,02,27,21.10
2016,08,25,02,28,21.10
2016,08,25,02,29,21.10
2016,08,25,02,30,21.10
2016,08,25,02,31,21.10
2016,08,25,02,32,21.00
2016,08,25,02,33,21.00
2016,08,25,02,34,21.00
2016,08,25,02,35,20.90
2016,08,25,02,36,20.90
2016,08,25,02,37,20.80
2016,08,25,02,38,20.80
2016,08,25,02,39,20.70
2016,08,25,02,40,20.70
2016,08,25,02,41,20.60
2016,08,25,02,42,20.60
2016,08,25,02,43,20.60
2016,08,25,02,44,20.60
2016,08,25,02,45,20.60
2016,08,25,02,46,20.60
2016,08,25,02,47,20.60
2016,08,25,02,48,20.60
2016,08,25,02,49,20.60
2016,08,25,02,50,20.50
2016,08,25,02,51,20.50
2016,08,25,02,52,20.50
2016,08,25,02,53,20.50
2016,08,25,02,54,20.50
2016,08,25,02,55,20.50
2016,08,25,02,56,20.50
2016,08,25,02,57,20.50
2016,08,25,02,58,20.50
2016,08,25,02,59,20.50
2016,08,25,03,00,20.50
2016,08,25,03,01,20.50
2016,08,25,03,02,20.60
2016,08,25,03,03,20.60
2016,08,25,03,04,20.60
2016,08,25,03,05,20.70
2016,08,25,03,06,20.70
2016,08,25,03,07,20.70
2016,08,25,03,08,20.80
2016,08,25,03,09,20.80
2016,08,25,03,10,20.80
2016,08,25,03,11,20.90
2016,08,25,03,12,20.90
2016,08,25,03,13,21.00
2016,08,25,03,14,21.10
2016,08,25,03,15,21.20
2016,08,25,03,16,21.30
2016,08,25,03,17,21.40
2016,08,25,03,18,21.50
2016,08,25,03,19,21.60
2016,08,25,03,20,21.60
2016,08,25,03,21,21.70
2016,08,25,03,22,21.70
2016,08,25,03,23,21.70
2016,08,25,03,24,21.80
2016,08,25,03,25,21.80
2016,08,25,03,26,21.90
2016,08,25,03,27,21.90
2016,08,25,03,28,21.90
2016,08,25,03,29,21.90
2016,08,25,03,30,21.90
2016,08,25,03,31,21.90
2016,08,25,03,32,21.90
2016,08,25,03,33,21.90
2016,08,25,03,34,21.90
2016,08,25,03,35,21.90
2016,08,25,03,36,21.90
2016,08,25,03,37,21.90
2016,08,25,03,38,21.80
2016,08,25,03,39,21.80
2016,08,25,03,40,21.80
2016,08,25,03,41,21.80
2016,08,25,03,42,21.80
2016,08,25,03,43,21.80
2016,08,25,03,44,21.70
2016,08,25,03,45,21.70
2016,08,25,03,46,21.70
2016,08,25,03,47,21.70
2016,08,25,03,48,21.70
2016,08,25,03,49,21.70
2016,08,25,03,50,21.70
2016,08,25,03,51,21.60
2016,08,25,03,52,21.60
2016,08,25,03,53,21.60
2016,08,25,03,54,21.60
2016,08,25,03,55,21.50
2016,08,25,03,56,21.40
2016,08,25,03,57,21.40
2016,08,25,03,58,21.30
2016,08,25,03,59,21.30
2016,08,25,04,00,21.20
2016,08,25,04,01,21.20
2016,08,25,04,02,21.10
2016,08,25,04,03,21.10
2016,08,25,04,04,21.10
2016,08,25,04,05,21.10
2016,08,25,04,06,21.10
2016,08,25,04,07,21.00
2016,08,25,04,08,21.00
2016,08,25,04,09,21.00
2016,08,25,04,10,20.90
2016,08,25,04,11,20.90
2016,08,25,04,12,20.80
2016,08,25,04,13,20.80
2016,08,25,04,14,20.80
2016,08,25,04,15,20.80
2016,08,25,04,16,20.80
2016,08,25,04,17,20.80
2016,08,25,04,18,20.80
2016,08,25,04,19,20.90
2016,08,25,04,20,20.90
2016,08,25,04,21,20.90
2016,08,25,04,22,20.90
2016,08,25,04,23,21.00
2016,08,25,04,24,21.00
2016,08,25,04,25,21.00
2016,08,25,04,26,21.00
2016,08,25,04,27,21.00
2016,08,25,04,28,21.00
2016,08,25,04,29,21.00
2016,08,25,04,30,21.00
2016,08,25,04,31,21.00
2016,08,25,04,32,21.00
2016,08,25,04,33,21.00
2016,08,25,04,34,21.00
2016,08,25,04,35,21.00
2016,08,25,04,36,21.00
2016,08,25,04,37,21.00
2016,08,25,04,38,21.10
2016,08,25,04,39,21.10
2016,08,25,04,40,21.10
2016,08,25,04,41,21.10
2016,08,25,04,42,21.10
2016,08,25,04,43,21.10
2016,08,25,04,44,21.10
2016,08,25,04,45,21.10
2016,08,25,04,46,21.10
2016,08,25,04,47,21.10
2016,08,25,04,48,21.10
2016,08,25,04,49,21.10
2016,08,25,04,50,21.10
2016,08,25,04,51,21.10
2016,08,25,04,52,21.10
2016,08,25,04,53,21.10
2016,08,25,04,54,21.20
2016,08,25,04,55,21.20
2016,08,25,04,56,21.20
2016,08,25,04,57,21.20
2016,08,25,04,58,21.20
2016,08,25,04,59,21.20
2016,08,25,05,00,21.20
2016,08,25,05,01,21.20
2016,08,25,05,02,21.20
2016,08,25,05,03,21.20
2016,08,25,05,04,21.20
2016,08,25,05,05,21.10
2016,08,25,05,06,21.10
2016,08,25,05,07,21.10
2016,08,25,05,08,21.10
2016,08,25,05,09,21.10
2016,08,25,05,10,21.10
2016,08,25,05,11,21.10
2016,08,25,05,12,21.00
2016,08,25,05,13,21.00
2016,08,25,05,14,21.00
2016,08,25,05,15,21.00
2016,08,25,05,16,21.00
2016,08,25,05,17,21.00
2016,08,25,05,18,21.00
2016,08,25,05,19,20.90
2016,08,25,05,20,20.90
2016,08,25,05,21,20.90
2016,08,25,05,22,20.90
2016,08,25,05,23,20.90
2016,08,25,05,24,20.90
2016,08,25,05,25,20.80
2016,08,25,05,26,20.80
2016,08,25,05,27,20.70
2016,08,25,05,28,20.70
2016,08,25,05,29,20.70
2016,08,25,05,30,20.60
2016,08,25,05,31,20.60
2016,08,25,05,32,20.50
2016,08,25,05,33,20.50
2016,08,25,05,34,20.50
2016,08,25,05,35,20.40
2016,08,25,05,36,20.40
2016,08,25,05,37,20.40
2016,08,25,05,38,20.30
2016,08,25,05,39,20.30
2016,08,25,05,40,20.30
2016,08,25,05,41,20.30
2016,08,25,05,42,20.20
2016,08,25,05,43,20.20
2016,08,25,05,44,20.20
2016,08,25,05,45,20.20
2016,08,25,05,46,20.20
2016,08,25,05,47,20.20
2016,08,25,05,48,20.20
2016,08,25,05,49,20.20
2016,08,25,05,50,20.10
2016,08,25,05,51,20.10
2016,08,25,05,52,20.00
2016,08,25,05,53,19.90
2016,08,25,05,54,19.90
2016,08,25,05,55,19.90
2016,08,25,05,56,19.80
2016,08,25,05,57,19.80
2016,08,25,05,58,19.70
2016,08,25,05,59,19.70
2016,08,25,06,00,19.60
2016,08,25,06,01,19.60
2016,08,25,06,02,19.60
2016,08,25,06,03,19.50
2016,08,25,06,04,19.50
2016,08,25,06,05,19.40
2016,08,25,06,06,19.40
2016,08,25,06,07,19.30
2016,08,25,06,08,19.30
2016,08,25,06,09,19.20
2016,08,25,06,10,19.20
2016,08,25,06,11,19.10
2016,08,25,06,12,19.10
2016,08,25,06,13,19.10
2016,08,25,06,14,19.10
2016,08,25,06,15,19.10
2016,08,25,06,16,19.00
2016,08,25,06,17,18.90
2016,08,25,06,18,18.90
2016,08,25,06,19,18.90
2016,08,25,06,20,18.90
2016,08,25,06,21,18.90
2016,08,25,06,22,18.90
2016,08,25,06,23,19.00
2016,08,25,06,24,19.10
2016,08,25,06,25,19.10
2016,08,25,06,26,19.10
2016,08,25,06,27,19.10
2016,08,25,06,28,19.10
2016,08,25,06,29,19.20
2016,08,25,06,30,19.20
2016,08,25,06,31,19.20
2016,08,25,06,32,19.30
2016,08,25,06,33,19.30
2016,08,25,06,34,19.30
2016,08,25,06,35,19.40
2016,08,25,06,36,19.40
2016,08,25,06,37,19.40
2016,08,25,06,38,19.50
2016,08,25,06,39,19.50
2016,08,25,06,40,19.50
2016,08,25,06,41,19.60
2016,08,25,06,42,19.60
2016,08,25,06,43,19.60
2016,08,25,06,44,19.70
2016,08,25,06,45,19.70
2016,08,25,06,46,19.80
2016,08,25,06,47,19.80
2016,08,25,06,48,19.80
2016,08,25,06,49,19.80
2016,08,25,06,50,19.90
2016,08,25,06,51,19.90
2016,08,25,06,52,19.90
2016,08,25,06,53,19.80
2016,08,25,06,54,19.80
2016,08,25,06,55,19.80
2016,08,25,06,56,19.80
2016,08,25,06,57,19.80
2016,08,25,06,58,19.80
2016,08,25,06,59,19.80
2016,08,25,07,00,19.90
2016,08,25,07,01,19.90
2016,08,25,07,02,19.90
2016,08,25,07,03,19.90
2016,08,25,07,04,19.90
2016,08,25,07,05,19.90
2016,08,25,07,06,19.90
2016,08,25,07,07,20.00
2016,08,25,07,08,20.10
2016,08,25,07,09,20.10
2016,08,25,07,10,20.10
2016,08,25,07,11,20.20
2016,08,25,07,12,20.20
2016,08,25,07,13,20.20
2016,08,25,07,14,20.30
2016,08,25,07,15,20.30
2016,08,25,07,16,20.40
2016,08,25,07,17,20.40
2016,08,25,07,18,20.50
2016,08,25,07,19,20.50
2016,08,25,07,20,20.50
2016,08,25,07,21,20.60
2016,08,25,07,22,20.60
2016,08,25,07,23,20.60
2016,08,25,07,24,20.70
2016,08,25,07,25,20.70
2016,08,25,07,26,20.80
2016,08,25,07,27,20.80
2016,08,25,07,28,20.80
2016,08,25,07,29,20.80
2016,08,25,07,30,20.90
2016,08,25,07,31,20.90
2016,08,25,07,32,20.90
2016,08,25,07,33,21.00
2016,08,25,07,34,21.00
2016,08,25,07,35,21.00
2016,08,25,07,36,21.00
2016,08,25,07,37,21.00
2016,08,25,07,38,21.10
2016,08,25,07,39,21.10
2016,08,25,07,40,21.10
2016,08,25,07,41,21.10
2016,08,25,07,42,21.10
2016,08,25,07,43,21.20
2016,08,25,07,44,21.20
2016,08,25,07,45,21.20
2016,08,25,07,46,21.20
2016,08,25,07,47,21.20
2016,08,25,07,48,21.20
2016,08,25,07,49,21.20
2016,08,25,07,50,21.20
2016,08,25,07,51,21.30
2016,08,25,07,52,21.30
2016,08,25,07,53,21.30
2016,08,25,07,54,21.30
2016,08,25,07,55,21.30
2016,08,25,07,56,21.30
2016,08,25,07,57,21.30
2016,08,25,07,58,21.30
2016,08,25,07,59,21.30
2016,08,25,08,00,21.40
2016,08,25,08,01,21.40
2016,08,25,08,02,21.50
2016,08,25,08,03,21.60
2016,08,25,08,04,21.60
2016,08,25,08,05,21.60
2016,08,25,08,06,21.60
2016,08,25,08,07,21.60
2016,08,25,08,08,21.60
2016,08,25,08,09,21.70
2016,08,25,08,10,21.70
2016,08,25,08,11,21.70
2016,08,25,08,12,21.70
2016,08,25,08,13,21.80
2016,08,25,08,14,21.80
2016,08,25,08,15,21.80
2016,08,25,08,16,21.90
2016,08,25,08,17,21.90
2016,08,25,08,18,21.90
2016,08,25,08,19,21.90
2016,08,25,08,20,21.90
2016,08,25,08,21,21.90
2016,08,25,08,22,21.90
2016,08,25,08,23,21.90
2016,08,25,08,24,22.00
2016,08,25,08,25,22.00
2016,08,25,08,26,22.00
2016,08,25,08,27,22.10
2016,08,25,08,28,22.10
2016,08,25,08,29,22.20
2016,08,25,08,30,22.20
2016,08,25,08,31,22.30
2016,08,25,08,32,22.30
2016,08,25,08,33,22.40
2016,08,25,08,34,22.40
2016,08,25,08,35,22.40
2016,08,25,08,36,22.50
2016,08,25,08,37,22.50
2016,08,25,08,38,22.50
2016,08,25,08,39,22.50
2016,08,25,08,40,22.50
2016,08,25,08,41,22.60
2016,08,25,08,42,22.60
2016,08,25,08,43,22.60
2016,08,25,08,44,22.60
2016,08,25,08,45,22.60
2016,08,25,08,46,22.60
2016,08,25,08,47,22.70
2016,08,25,08,48,22.70
2016,08,25,08,49,22.70
2016,08,25,08,50,22.70
2016,08,25,08,51,22.80
2016,08,25,08,52,22.80
2016,08,25,08,53,22.80
2016,08,25,08,54,22.90
2016,08,25,08,55,22.90
2016,08,25,08,56,22.90
2016,08,25,08,57,22.90
2016,08,25,08,58,22.70
2016,08,25,08,59,22.70
2016,08,25,09,00,22.70
2016,08,25,09,01,22.70
2016,08,25,09,02,22.70
2016,08,25,09,03,22.70
2016,08,25,09,04,22.60
2016,08,25,09,05,22.60
2016,08,25,09,06,22.50
2016,08,25,09,07,22.50
2016,08,25,09,08,22.40
2016,08,25,09,09,22.40
2016,08,25,09,10,22.30
2016,08,25,09,11,22.30
2016,08,25,09,12,22.30
2016,08,25,09,13,22.30
2016,08,25,09,14,22.30
2016,08,25,09,15,22.30
2016,08,25,09,16,22.30
2016,08,25,09,17,22.30
2016,08,25,09,18,22.30
2016,08,25,09,19,22.30
2016,08,25,09,20,22.40
2016,08,25,09,21,22.40
2016,08,25,09,22,22.40
2016,08,25,09,23,22.50
2016,08,25,09,24,22.50
2016,08,25,09,25,22.50
2016,08,25,09,26,22.50
2016,08,25,09,27,22.40
2016,08,25,09,28,22.40
2016,08,25,09,29,22.40
2016,08,25,09,30,22.40
2016,08,25,09,31,22.40
2016,08,25,09,32,22.40
2016,08,25,09,33,22.40
2016,08,25,09,34,22.40
2016,08,25,09,35,22.50
2016,08,25,09,36,22.50
2016,08,25,09,37,22.40
2016,08,25,09,38,22.40
2016,08,25,09,39,22.40
2016,08,25,09,40,22.30
2016,08,25,09,41,22.30
2016,08,25,09,42,22.40
2016,08,25,09,43,22.40
2016,08,25,09,44,22.40
2016,08,25,09,45,22.50
2016,08,25,09,46,22.50
2016,08,25,09,47,22.60
2016,08,25,09,48,22.60
2016,08,25,09,49,22.60
2016,08,25,09,50,22.70
2016,08,25,09,51,22.60
2016,08,25,09,52,22.60
2016,08,25,09,53,22.60
2016,08,25,09,54,22.70
2016,08,25,09,55,22.70
2016,08,25,09,56,22.60
2016,08,25,09,57,22.60
2016,08,25,09,58,22.60
2016,08,25,09,59,22.60
2016,08,25,10,00,22.60
2016,08,25,10,01,22.60
2016,08,25,10,02,22.60
2016,08,25,10,03,22.60
2016,08,25,10,04,22.60
2016,08,25,10,05,22.60
2016,08,25,10,06,22.70
2016,08,25,10,07,22.70
2016,08,25,10,08,22.70
2016,08,25,10,09,22.70
2016,08,25,10,10,22.80
2016,08,25,10,11,22.80
2016,08,25,10,12,22.80
2016,08,25,10,13,22.80
2016,08,25,10,14,22.80
2016,08,25,10,15,22.80
2016,08,25,10,16,22.90
2016,08,25,10,17,22.90
2016,08,25,10,18,22.90
2016,08,25,10,19,23.00
2016,08,25,10,20,23.10
2016,08,25,10,21,23.20
2016,08,25,10,22,23.30
2016,08,25,10,23,23.40
2016,08,25,10,24,23.40
2016,08,25,10,25,23.50
2016,08,25,10,26,23.60
2016,08,25,10,27,23.60
2016,08,25,10,28,23.70
2016,08,25,10,29,23.70
2016,08,25,10,30,23.70
2016,08,25,10,31,23.70
2016,08,25,10,32,23.70
2016,08,25,10,33,23.70
2016,08,25,10,34,23.70
2016,08,25,10,35,23.70
2016,08,25,10,36,23.70
2016,08,25,10,37,23.70
2016,08,25,10,38,23.70
2016,08,25,10,39,23.70
2016,08,25,10,40,23.60
2016,08,25,10,41,23.60
2016,08,25,10,42,23.60
2016,08,25,10,43,23.70
2016,08,25,10,44,23.70
2016,08,25,10,45,23.60
2016,08,25,10,46,23.60
2016,08,25,10,47,23.60
2016,08,25,10,48,23.60
2016,08,25,10,49,23.70
2016,08,25,10,50,23.70
2016,08,25,10,51,23.70
2016,08,25,10,52,23.80
2016,08,25,10,53,23.90
2016,08,25,10,54,24.00
2016,08,25,10,55,24.10
2016,08,25,10,56,24.20
2016,08,25,10,57,24.30
2016,08,25,10,58,24.30
2016,08,25,10,59,24.30
2016,08,25,11,00,24.40
2016,08,25,11,01,24.40
2016,08,25,11,02,24.30
2016,08,25,11,03,24.30
2016,08,25,11,04,24.30
2016,08,25,11,05,24.30
2016,08,25,11,06,24.20
2016,08,25,11,07,24.20
2016,08,25,11,08,24.30
2016,08,25,11,09,24.30
2016,08,25,11,10,24.30
2016,08,25,11,11,24.40
2016,08,25,11,12,24.40
2016,08,25,11,13,24.40
2016,08,25,11,14,24.40
2016,08,25,11,15,24.50
2016,08,25,11,16,24.50
2016,08,25,11,17,24.50
2016,08,25,11,18,24.50
2016,08,25,11,19,24.50
2016,08,25,11,20,24.50
2016,08,25,11,21,24.50
2016,08,25,11,22,24.60
2016,08,25,11,23,24.50
2016,08,25,11,24,24.60
2016,08,25,11,25,24.60
2016,08,25,11,26,24.60
2016,08,25,11,27,24.60
2016,08,25,11,28,24.60
2016,08,25,11,29,24.60
2016,08,25,11,30,24.60
2016,08,25,11,31,24.60
2016,08,25,11,32,24.60
2016,08,25,11,33,24.60
2016,08,25,11,34,24.60
2016,08,25,11,35,24.60
2016,08,25,11,36,24.60
2016,08,25,11,37,24.60
2016,08,25,11,38,24.60
2016,08,25,11,39,24.60
2016,08,25,11,40,24.50
2016,08,25,11,41,24.50
2016,08,25,11,42,24.50
2016,08,25,11,43,24.50
2016,08,25,11,44,24.50
2016,08,25,11,45,24.40
2016,08,25,11,46,24.50
2016,08,25,11,47,24.40
2016,08,25,11,48,24.40
2016,08,25,11,49,24.40
2016,08,25,11,50,24.40
2016,08,25,11,51,24.40
2016,08,25,11,52,24.30
2016,08,25,11,53,24.30
2016,08,25,11,54,24.40
2016,08,25,11,55,24.30
2016,08,25,11,56,24.40
2016,08,25,11,57,24.40
2016,08,25,11,58,24.50
2016,08,25,11,59,24.50
2016,08,25,12,00,24.70
2016,08,25,12,01,24.80
2016,08,25,12,02,24.90
2016,08,25,12,03,24.90
2016,08,25,12,04,25.00
2016,08,25,12,05,25.00
2016,08,25,12,06,25.10
2016,08,25,12,07,25.10
2016,08,25,12,08,25.10
2016,08,25,12,09,25.10
2016,08,25,12,10,25.20
2016,08,25,12,11,25.20
2016,08,25,12,12,25.20
2016,08,25,12,13,25.20
2016,08,25,12,14,25.20
2016,08,25,12,15,25.20
2016,08,25,12,16,25.30
2016,08,25,12,17,25.30
2016,08,25,12,18,25.20
2016,08,25,12,19,25.20
2016,08,25,12,20,25.20
2016,08,25,12,21,25.20
2016,08,25,12,22,25.30
2016,08,25,12,23,25.40
2016,08,25,12,24,25.40
2016,08,25,12,25,25.40
2016,08,25,12,26,25.40
2016,08,25,12,27,25.40
2016,08,25,12,28,25.40
2016,08,25,12,29,25.40
2016,08,25,12,30,25.20
2016,08,25,12,31,25.10
2016,08,25,12,32,25.00
2016,08,25,12,33,24.90
2016,08,25,12,34,24.80
2016,08,25,12,35,24.80
2016,08,25,12,36,24.70
2016,08,25,12,37,24.70
2016,08,25,12,38,24.70
2016,08,25,12,39,24.80
2016,08,25,12,40,24.80
2016,08,25,12,41,24.80
2016,08,25,12,42,24.80
2016,08,25,12,43,24.80
2016,08,25,12,44,24.80
2016,08,25,12,45,24.80
2016,08,25,12,46,24.80
2016,08,25,12,47,24.70
2016,08,25,12,48,24.70
2016,08,25,12,49,24.70
2016,08,25,12,50,24.70
2016,08,25,12,51,24.60
2016,08,25,12,52,24.60
2016,08,25,12,53,24.60
2016,08,25,12,54,24.60
2016,08,25,12,55,24.70
2016,08,25,12,56,24.70
2016,08,25,12,57,24.80
2016,08,25,12,58,24.80
2016,08,25,12,59,24.80
2016,08,25,13,00,24.90
2016,08,25,13,01,24.90
2016,08,25,13,02,24.90
2016,08,25,13,03,24.80
2016,08,25,13,04,24.80
2016,08,25,13,05,24.80
2016,08,25,13,06,24.90
2016,08,25,13,07,24.90
2016,08,25,13,08,25.00
2016,08,25,13,09,25.20
2016,08,25,13,10,25.30
2016,08,25,13,11,25.40
2016,08,25,13,12,25.60
2016,08,25,13,13,25.70
2016,08,25,13,14,25.80
2016,08,25,13,15,25.90
2016,08,25,13,16,26.00
2016,08,25,13,17,26.00
2016,08,25,13,18,26.10
2016,08,25,13,19,26.10
2016,08,25,13,20,26.10
2016,08,25,13,21,26.00
2016,08,25,13,22,26.00
2016,08,25,13,23,25.90
2016,08,25,13,24,25.80
2016,08,25,13,25,25.80
2016,08,25,13,26,25.80
2016,08,25,13,27,25.70
2016,08,25,13,28,25.70
2016,08,25,13,29,25.70
2016,08,25,13,30,25.70
2016,08,25,13,31,25.80
2016,08,25,13,32,25.80
2016,08,25,13,33,25.80
2016,08,25,13,34,25.70
2016,08,25,13,35,25.70
2016,08,25,13,36,25.80
2016,08,25,13,37,25.80
2016,08,25,13,38,25.90
2016,08,25,13,39,25.90
2016,08,25,13,40,26.00
2016,08,25,13,41,26.10
2016,08,25,13,42,26.20
2016,08,25,13,43,26.30
2016,08,25,13,44,26.40
2016,08,25,13,45,26.40
2016,08,25,13,46,26.30
2016,08,25,13,47,26.30
2016,08,25,13,48,26.30
2016,08,25,13,49,26.30
2016,08,25,13,50,26.20
2016,08,25,13,51,26.10
2016,08,25,13,52,26.10
2016,08,25,13,53,26.20
2016,08,25,13,54,26.20
2016,08,25,13,55,26.20
2016,08,25,13,56,26.30
2016,08,25,13,57,26.40
2016,08,25,13,58,26.40
2016,08,25,13,59,26.40
2016,08,25,14,00,26.40
2016,08,25,14,01,26.30
2016,08,25,14,02,26.20
2016,08,25,14,03,26.00
2016,08,25,14,04,25.90
2016,08,25,14,05,25.80
2016,08,25,14,06,25.80
2016,08,25,14,07,25.70
2016,08,25,14,08,25.70
2016,08,25,14,09,25.60
2016,08,25,14,10,25.50
2016,08,25,14,11,25.40
2016,08,25,14,12,25.40
2016,08,25,14,13,25.40
2016,08,25,14,14,25.50
2016,08,25,14,15,25.60
2016,08,25,14,16,25.70
2016,08,25,14,17,25.80
2016,08,25,14,18,25.80
2016,08,25,14,19,25.80
2016,08,25,14,20,25.90
2016,08,25,14,21,25.90
2016,08,25,14,22,26.00
2016,08,25,14,23,26.00
2016,08,25,14,24,26.00
2016,08,25,14,25,26.00
2016,08,25,14,26,26.00
2016,08,25,14,27,26.00
2016,08,25,14,28,26.10
2016,08,25,14,29,26.10
2016,08,25,14,30,26.20
2016,08,25,14,31,26.20
2016,08,25,14,32,26.30
2016,08,25,14,33,26.40
2016,08,25,14,34,26.50
2016,08,25,14,35,26.60
2016,08,25,14,36,26.60
2016,08,25,14,37,26.60
2016,08,25,14,38,26.60
2016,08,25,14,39,26.60
2016,08,25,14,40,26.60
2016,08,25,14,41,26.70
2016,08,25,14,42,26.70
2016,08,25,14,43,26.80
2016,08,25,14,44,26.80
2016,08,25,14,45,26.90
2016,08,25,14,46,26.90
2016,08,25,14,47,26.90
2016,08,25,14,48,27.00
2016,08,25,14,49,27.10
2016,08,25,14,50,27.00
2016,08,25,14,51,26.90
2016,08,25,14,52,26.80
2016,08,25,14,53,26.80
2016,08,25,14,54,26.80
2016,08,25,14,55,26.70
2016,08,25,14,56,26.60
2016,08,25,14,57,26.60
2016,08,25,14,58,26.50
2016,08,25,14,59,26.40
2016,08,25,15,00,26.30
2016,08,25,15,01,26.30
2016,08,25,15,02,26.30
2016,08,25,15,03,26.30
2016,08,25,15,04,26.30
2016,08,25,15,05,26.40
2016,08,25,15,06,26.40
2016,08,25,15,07,26.50
2016,08,25,15,08,26.60
2016,08,25,15,09,26.60
2016,08,25,15,10,26.60
2016,08,25,15,11,26.70
2016,08,25,15,12,26.80
2016,08,25,15,13,26.80
2016,08,25,15,14,26.80
2016,08,25,15,15,26.90
2016,08,25,15,16,27.00
2016,08,25,15,17,27.10
2016,08,25,15,18,27.20
2016,08,25,15,19,27.30
2016,08,25,15,20,27.40
2016,08,25,15,21,27.60
2016,08,25,15,22,27.60
2016,08,25,15,23,27.60
2016,08,25,15,24,27.60
2016,08,25,15,25,27.60
2016,08,25,15,26,27.60
2016,08,25,15,27,27.60
2016,08,25,15,28,27.60
2016,08,25,15,29,27.60
2016,08,25,15,30,27.60
2016,08,25,15,31,27.70
2016,08,25,15,32,27.60
2016,08,25,15,33,27.60
2016,08,25,15,34,27.60
2016,08,25,15,35,27.60
2016,08,25,15,36,27.60
2016,08,25,15,37,27.60
2016,08,25,15,38,27.60
2016,08,25,15,39,27.70
2016,08,25,15,40,27.80
2016,08,25,15,41,27.80
2016,08,25,15,42,27.90
2016,08,25,15,43,27.90
2016,08,25,15,44,28.00
2016,08,25,15,45,28.10
2016,08,25,15,46,28.20
2016,08,25,15,47,28.20
2016,08,25,15,48,28.30
2016,08,25,15,49,28.30
2016,08,25,15,50,28.40
2016,08,25,15,51,28.50
2016,08,25,15,52,28.60
2016,08,25,15,53,28.60
2016,08,25,15,54,28.60
2016,08,25,15,55,28.60
2016,08,25,15,56,28.70
2016,08,25,15,57,28.70
2016,08,25,15,58,28.80
2016,08,25,15,59,28.80
2016,08,25,16,00,28.80
2016,08,25,16,01,28.80
2016,08,25,16,02,28.90
2016,08,25,16,03,28.90
2016,08,25,16,04,28.90
2016,08,25,16,05,28.90
2016,08,25,16,06,28.90
2016,08,25,16,07,28.90
2016,08,25,16,08,28.90
2016,08,25,16,09,28.90
2016,08,25,16,10,28.90
2016,08,25,16,11,28.90
2016,08,25,16,12,28.90
2016,08,25,16,13,28.90
2016,08,25,16,14,28.90
2016,08,25,16,15,29.00
2016,08,25,16,16,29.10
2016,08,25,16,17,29.10
2016,08,25,16,18,29.10
2016,08,25,16,19,29.20
2016,08,25,16,20,29.20
2016,08,25,16,21,29.20
2016,08,25,16,22,29.10
2016,08,25,16,23,29.10
2016,08,25,16,24,29.00
2016,08,25,16,25,28.90
2016,08,25,16,26,28.90
2016,08,25,16,27,29.00
2016,08,25,16,28,29.10
2016,08,25,16,29,29.10
2016,08,25,16,30,29.10
2016,08,25,16,31,29.10
2016,08,25,16,32,29.10
2016,08,25,16,33,29.10
2016,08,25,16,34,29.10
2016,08,25,16,35,29.10
2016,08,25,16,36,29.10
2016,08,25,16,37,29.10
2016,08,25,16,38,29.20
2016,08,25,16,39,29.20
2016,08,25,16,40,29.10
2016,08,25,16,41,29.10
2016,08,25,16,42,29.10
2016,08,25,16,43,29.10
2016,08,25,16,44,29.10
2016,08,25,16,45,29.10
2016,08,25,16,46,29.10
2016,08,25,16,47,29.20
2016,08,25,16,48,29.30
2016,08,25,16,49,29.40
2016,08,25,16,50,29.50
2016,08,25,16,51,29.60
2016,08,25,16,52,29.70
2016,08,25,16,53,29.70
2016,08,25,16,54,29.70
2016,08,25,16,55,29.70
2016,08,25,16,56,29.70
2016,08,25,16,57,29.80
2016,08,25,16,58,29.80
2016,08,25,16,59,29.90
2016,08,25,17,00,30.00
2016,08,25,17,01,30.10
2016,08,25,17,02,30.10
2016,08,25,17,03,30.20
2016,08,25,17,04,30.30
2016,08,25,17,05,30.30
2016,08,25,17,06,30.30
2016,08,25,17,07,30.30
2016,08,25,17,08,30.30
2016,08,25,17,09,30.30
2016,08,25,17,10,30.30
2016,08,25,17,11,30.30
2016,08,25,17,12,30.30
2016,08,25,17,13,30.30
2016,08,25,17,14,30.40
2016,08,25,17,15,30.40
2016,08,25,17,16,30.40
2016,08,25,17,17,30.50
2016,08,25,17,18,30.60
2016,08,25,17,19,30.60